Regional Weather Roundup
Issued by NWS

Home | Current Version | Previous Version | Graphics & Text | Print | Product List | Glossary On
Versions: 1 2 3 4 5 6 7 8 9 10 11 12 13 14 15 16 17 18 19 20 21 22 23 24 25 26 27 28 29 30 31 32 33 34 35 36 37 38 39 40 41 42 43 44 45 46 47 48 49 50
000
ASUS43 KMKX 200900
RWRWI

WISCONSIN REGIONAL WEATHER ROUNDUP
NATIONAL WEATHER SERVICE MILWAUKEE/SULLIVAN WI
300 AM CST TUE FEB 20 2018

NOTE: "FAIR" INDICATES FEW OR NO CLOUDS BELOW 12,000 FEET WITH NO
SIGNIFICANT WEATHER AND/OR OBSTRUCTIONS TO VISIBILITY.

WIZ001-002-006>008-014>016-023>028-201000-
NORTHWEST WISCONSIN

CITY           SKY/WX    TMP DP  RH WIND       PRES   REMARKS
SUPERIOR ARPT  CLOUDY    22  18  86 E16G28    29.91F WCI   8
ASHLAND        CLOUDY    19  16  88 NE17      29.90F WCI   4
HAYWARD        CLOUDY    18  14  84 NE9       29.83F WCI   7
SIREN          CLOUDY    19  17  93 NE7       29.85F WCI  10
CUMBERLAND     CLOUDY    19  16  86 NE7       29.82F WCI  10
RICE LAKE      CLOUDY    19  18  93 NE7       29.84F WCI  10
CHETEK         CLOUDY    19  17  92 NE5       29.83F WCI  12
LADYSMITH      CLOUDY    20  18  90 NE5       29.83S WCI  14
EAU CLAIRE     NOT AVBL
MENOMONIE      CLOUDY    22  19  91 CALM      29.85R
NEW RICHMOND   CLOUDY    19  16  86 NE6       29.85R WCI  11
OSCEOLA        CLOUDY    20  18  89 NE6       29.88R WCI  13
$$

WIZ003>005-009-010-017-018-201000-
NORTH CENTRAL WISCONSIN

CITY           SKY/WX    TMP DP  RH WIND       PRES   REMARKS
MANITOWISH WTR CLOUDY    17  17 100 NE6       29.80F FOG     WCI   9
ARBOR VITAE    CLOUDY    22  20  93 E7        29.79F FOG     WCI  13
WOODRUFF       CLOUDY    22  20  93 E7        29.79F FOG     WCI  13
RHINELANDER    CLOUDY    21  20  96 E8        29.78F FOG     WCI  11
EAGLE RIVER    CLOUDY    20  20  98 NE8       29.78F FOG     WCI  10
LAND O LAKES   CLOUDY    20  19  95 E5        29.81F FOG     WCI  14
PHILLIPS       CLOUDY    18  17  98 NE6       29.79F WCI   9
TOMAHAWK       CLOUDY    21  19  93 NE6       29.79F FOG     WCI  13
MEDFORD        CLOUDY    21  20  96 NE8       29.76F WCI  12
MERRILL        CLOUDY    23  22  97 NE5       29.78F FOG     WCI  17
$$

WIZ029-030-035-036-043>047-201000-
CENTRAL WISCONSIN

CITY           SKY/WX    TMP DP  RH WIND       PRES   REMARKS
WAUSAU         CLOUDY    26  24  92 NE3       29.77F FOG
MOSINEE        CLOUDY    27  27 100 NE6       29.79F FOG     WCI  20
MARSHFIELD     CLOUDY    26  25  96 E6        29.75F FOG     WCI  19
STEVENS POINT  CLOUDY    25  25 100 NE6       29.80F FOG     WCI  18
WAUPACA        CLOUDY    29  28  92 N6        29.81F FOG     WCI  23
WAUTOMA        CLOUDY    28  27  96 NE9       29.79S FOG     WCI  19
WISC RAPIDS    CLOUDY    27  24  89 E6        29.79F FOG     WCI  20
CAMP DOUGLAS   CLOUDY    29  29  99 CALM      29.77F FOG
$$

WIZ011>013-019>022-031-037>040-048>050-201000-
NORTHEAST WISCONSIN

CITY           SKY/WX    TMP DP  RH WIND       PRES   REMARKS
ANTIGO         CLOUDY    24  24 100 NE9       29.79F WCI  14
SHAWANO        CLOUDY    30  28  93 NE6       29.81F FOG     WCI  24
OCONTO         CLOUDY    30  30  98 N3        29.82S
STURGEON BAY   LGT RAIN  34  33  96 N9        29.79F VSB 1/2 WCI  27
GREEN BAY      CLOUDY    30  28  92 N8        29.80F FOG     WCI  22
MANITOWOC      MIX PCPN  32  31  96 NW5       29.79F VSB 3/4 WCI  27
APPLETON       FOG       30  30 100 N9        29.77F VSB 3/4 WCI  22
CLINTONVILLE   CLOUDY    28  27  95 NE6       29.80F FOG     WCI  21
OSHKOSH        FOG       30  29  96 NE8       29.79S VSB 1/2 WCI  22
$$

WIZ032>034-041-042-053>061-201000-
SOUTHWEST WISCONSIN

CITY           SKY/WX    TMP DP  RH WIND       PRES   REMARKS
LA CROSSE      CLOUDY    31  29  92 CALM      29.80S
SPARTA         CLOUDY    28  28  99 NE7       29.78F WCI  21
VIROQUA        CLOUDY    30  30 100 E7        29.75F VSB 3/4 WCI  23
BOSCOBEL       FOG       34  33  96 NE3       29.77F VSB 1/2
PRAIRIE DU CHI FOG       34  33  96 CALM      29.75F VSB 1/4
PLATTEVILLE    CLOUDY    35  35 100 S3        29.77S VSB 1/4
$$

WIZ056-057-062-063-064-067-068-201000-
SOUTH CENTRAL WISCONSIN

CITY           SKY/WX    TMP DP  RH WIND       PRES   REMARKS
REEDSBURG      FOG       30  30 100 E5        29.77F VSB 1/2 WCI  25
BARABOO/DELLS  FOG       30  29  99 NE5       29.77F VSB<1/4 WCI  25
LONE ROCK      FOG       33  33 100 NE6       29.77F VSB 1/4 WCI  28
MINERAL POINT  FOG       36  36 100 CALM      29.76S VSB<1/4
MADISON        FOG       33  33 100 CALM      29.78S VSB 3/4
MIDDLETON      CLOUDY    34  34 100 CALM      29.77F VSB 1/2
WATERTOWN      CLOUDY    35  35 100 CALM      29.77F FOG
MONROE         FOG       37  37 100 S6        29.75F VSB 1/4 WCI  33
JANESVILLE     LGT RAIN  43  43 100 S5        29.76F VSB 1/2
$$

WIZ051-052-058>065-066-070>072-201000-
SOUTHEAST WISCONSIN

CITY           SKY/WX    TMP DP  RH WIND       PRES   REMARKS
MILWAUKEE      LGT RAIN  38  37  97 SE3       29.79F VSB 1
WAUKESHA       FOG       34  34 100 CALM      29.79S VSB 1/2
MILWAUKEE/TIMM FOG       36  32  87 CALM      29.80R VSB 1/2
RACINE         RAIN      38  38 100 CALM      29.81R FOG
BURLINGTON     HVY RAIN  47  46  98 SW5       29.80R VSB 1/4
KENOSHA        RAIN      57  55  93 SW10      29.79R FOG
FOND DU LAC    CLOUDY    31  28  89 N6        29.78F FOG     WCI  25
SHEBOYGAN      CLOUDY    34  34 100 CALM      29.78S FOG
WEST BEND      FOG       34  34 100 CALM      29.78S VSB 3/4
JUNEAU         FOG       33  32  99 CALM      29.77S VSB 1/2
$$

LSZ147-162-201000-
LAKE SUPERIOR

STATION/POSITION TIME  TEMP    WIND        PRES    WAVE
                       AIR SEA DIR/SP/G            HT/PER
                 (UTC) (F)     (DEG/KT/KT) (MB)    (FT/S)
DEVILS ISLAND    0800   21      50/ 25/ 29 1015.7F
SAXON HARBOR     0830   20      60/  7/ 10 1012.5F
$$

LMZ867-665-643>646-201000-
LAKE MICHIGAN

STATION/POSITION TIME  TEMP    WIND        PRES    WAVE
                       AIR SEA DIR/SP/G            HT/PER
                 (UTC) (F)     (DEG/KT/KT) (MB)    (FT/S)
NORTHPORT PIER   0840   31                 1009.8F
KEWAUNEE LAKESHO 0830   34     310/  4/  5 1007.9F
SHEBOYGAN LAKESH 0800   35     360/  6/  7 1009.1F
PORT WASHINGTON  0830   36     310/  1/  3 1010.2S
MILWAUKEE LAKESH 0830   35      60/  3/  4   N/A
KENOSHA   LAKESH 0800   58     200/ 12/ 17 1008.5
$$

TC  - TEMPERATURE IN CELSIUS
VSB - VISIBILITY IN STATUTE MILES
WCI - WIND CHILL INDEX
HX  - HEAT INDEX





USA.gov is the U.S. government's official web portal to all federal, state and local government web resources and services.